| time (UTC) | temp F | wind direction | speed MPH | gust MPH | rain 1hr in | rain 24hr in | rain mn in | humidity % | barometer mb |
| 20260503044546 | 50 | 11 | 1.0 | 3.0 | 0.00 | 0.00 | 0.00 | 76 | 1016.4 |
| 20260503044041 | 51 | 355 | 1.0 | 3.0 | 0.00 | 0.00 | 0.00 | 71 | 1016.4 |
| 20260503043538 | 51 | 9 | 2.0 | 4.0 | 0.00 | 0.00 | 0.00 | 73 | 1016.4 |
| 20260503043052 | 51 | 331 | 1.0 | 5.0 | 0.00 | 0.00 | 0.00 | 70 | 1016.4 |
| 20260503042538 | 51 | 336 | 2.0 | 5.0 | 0.00 | 0.00 | 0.00 | 70 | 1016.5 |
| 20260503042038 | 51 | 355 | 2.0 | 5.0 | 0.00 | 0.00 | 0.00 | 69 | 1016.4 |
| 20260503041546 | 51 | 333 | 3.0 | 5.0 | 0.00 | 0.00 | 0.00 | 67 | 1016.3 |
| 20260503041045 | 51 | 316 | 2.0 | 5.0 | 0.00 | 0.00 | 0.00 | 69 | 1016.4 |
| 20260503040541 | 51 | 351 | 3.0 | 5.0 | 0.00 | 0.00 | 0.00 | 67 | 1016.4 |
| 20260503040055 | 51 | 341 | 3.0 | 4.0 | 0.00 | 0.00 | 0.00 | 69 | 1016.3 |
| 20260503035543 | 52 | 342 | 2.0 | 4.0 | 0.00 | 0.00 | 0.00 | 68 | 1016.1 |
| 20260503035044 | 52 | 17 | 2.0 | 5.0 | 0.00 | 0.00 | 0.00 | 69 | 1016.1 |
| 20260503034550 | 52 | 5 | 2.0 | 8.0 | 0.00 | 0.00 | 0.00 | 66 | 1016.1 |
| 20260503034038 | 52 | 339 | 2.0 | 8.0 | 0.00 | 0.00 | 0.00 | 66 | 1016.0 |
| 20260503033542 | 52 | 306 | 2.0 | 8.0 | 0.00 | 0.00 | 0.00 | 66 | 1016.2 |
| 20260503033046 | 52 | 281 | 2.0 | 8.0 | 0.00 | 0.00 | 0.00 | 65 | 1016.2 |
| 20260503032538 | 52 | 303 | 3.0 | 8.0 | 0.00 | 0.00 | 0.00 | 64 | 1016.2 |
| 20260503032038 | 52 | 320 | 2.0 | 5.0 | 0.00 | 0.00 | 0.00 | 65 | 1016.2 |
| 20260503031551 | 52 | 355 | 2.0 | 5.0 | 0.00 | 0.00 | 0.00 | 64 | 1016.1 |
| 20260503031038 | 52 | 330 | 2.0 | 5.0 | 0.00 | 0.00 | 0.00 | 65 | 1016.0 |
| 20260503030538 | 53 | 314 | 2.0 | 5.0 | 0.00 | 0.00 | 0.00 | 64 | 1016.0 |
| 20260503030058 | 53 | 349 | 2.0 | 7.0 | 0.00 | 0.00 | 0.00 | 64 | 1015.9 |
| 20260503025538 | 53 | 0 | 2.0 | 7.0 | 0.00 | 0.00 | 0.00 | 64 | 1015.9 |
| 20260503025040 | 52 | 313 | 3.0 | 7.0 | 0.00 | 0.00 | 0.00 | 65 | 1015.8 |
| 20260503024549 | 52 | 295 | 3.0 | 5.0 | 0.00 | 0.00 | 0.00 | 64 | 1015.8 |
| 20260503024038 | 52 | 288 | 2.0 | 5.0 | 0.00 | 0.00 | 0.00 | 63 | 1015.6 |
| 20260503023539 | 52 | 306 | 2.0 | 6.0 | 0.00 | 0.00 | 0.00 | 65 | 1015.5 |
| 20260503023057 | 52 | 274 | 3.0 | 6.0 | 0.00 | 0.00 | 0.00 | 66 | 1015.4 |
| 20260503022540 | 51 | 322 | 1.0 | 4.0 | 0.00 | 0.00 | 0.00 | 71 | 1015.3 |
| 20260503022039 | 51 | 32 | 1.0 | 3.0 | 0.00 | 0.00 | 0.00 | 72 | 1015.3 |
| 20260503021554 | 51 | 40 | 1.0 | 3.0 | 0.00 | 0.00 | 0.00 | 71 | 1015.3 |
| 20260503021040 | 51 | 32 | 1.0 | 3.0 | 0.00 | 0.00 | 0.00 | 72 | 1015.2 |
| 20260503020540 | 51 | 0 | 0.0 | 3.0 | 0.00 | 0.00 | 0.00 | 70 | 1015.2 |
| 20260503020049 | 51 | 44 | 1.0 | 3.0 | 0.00 | 0.00 | 0.00 | 70 | 1015.1 |
| 20260503015541 | 51 | 0 | 0.0 | 3.0 | 0.00 | 0.00 | 0.00 | 68 | 1015.1 |
| 20260503015041 | 51 | 68 | 1.0 | 3.0 | 0.00 | 0.00 | 0.00 | 68 | 1015.0 |
| 20260503014544 | 51 | 65 | 1.0 | 3.0 | 0.00 | 0.00 | 0.00 | 67 | 1015.0 |
| 20260503014040 | 52 | 60 | 1.0 | 3.0 | 0.00 | 0.00 | 0.00 | 67 | 1015.0 |
| 20260503013540 | 52 | 61 | 1.0 | 4.0 | 0.00 | 0.00 | 0.00 | 67 | 1015.0 |
| 20260503013043 | 52 | 56 | 2.0 | 4.0 | 0.00 | 0.00 | 0.00 | 67 | 1014.9 |
| 20260503012544 | 52 | 24 | 1.0 | 4.0 | 0.00 | 0.00 | 0.00 | 67 | 1014.9 |
| 20260503012041 | 53 | 34 | 2.0 | 4.0 | 0.00 | 0.00 | 0.00 | 66 | 1014.7 |
| 20260503011549 | 53 | 26 | 1.0 | 3.0 | 0.00 | 0.00 | 0.00 | 65 | 1014.6 |
| 20260503011041 | 53 | 32 | 1.0 | 4.0 | 0.00 | 0.00 | 0.00 | 63 | 1014.5 |
| 20260503010539 | 54 | 29 | 0.0 | 4.0 | 0.00 | 0.00 | 0.00 | 62 | 1014.4 |
| 20260503010048 | 54 | 0 | 1.0 | 4.0 | 0.00 | 0.00 | 0.00 | 63 | 1014.3 |
| 20260503005541 | 55 | 0 | 0.0 | 4.0 | 0.00 | 0.00 | 0.00 | 60 | 1014.3 |
| 20260503005041 | 55 | 26 | 1.0 | 3.0 | 0.00 | 0.00 | 0.00 | 60 | 1014.2 |
| 20260503004556 | 56 | 32 | 2.0 | 4.0 | 0.00 | 0.00 | 0.00 | 58 | 1014.2 |
| 20260503004040 | 56 | 31 | 2.0 | 5.0 | 0.00 | 0.00 | 0.00 | 58 | 1014.1 |
| 20260503003540 | 56 | 355 | 2.0 | 5.0 | 0.00 | 0.00 | 0.00 | 54 | 1014.1 |
| 20260503003114 | 57 | 39 | 2.0 | 6.0 | 0.00 | 0.00 | 0.00 | 52 | 1013.8 |
| 20260503002540 | 57 | 26 | 3.0 | 7.0 | 0.00 | 0.00 | 0.00 | 49 | 1013.8 |
| 20260503002040 | 57 | 9 | 3.0 | 8.0 | 0.00 | 0.00 | 0.00 | 49 | 1013.9 |
| 20260503001601 | 57 | 351 | 3.0 | 10.0 | 0.00 | 0.00 | 0.00 | 48 | 1013.7 |
| 20260503001043 | 58 | 340 | 5.0 | 10.0 | 0.00 | 0.00 | 0.00 | 47 | 1013.8 |
| 20260503000539 | 58 | 13 | 5.0 | 11.0 | 0.00 | 0.00 | 0.00 | 44 | 1013.5 |
| 20260503000047 | 58 | 15 | 5.0 | 11.0 | 0.00 | 0.00 | 0.00 | 44 | 1013.5 |
| 20260502235540 | 58 | 21 | 3.0 | 14.0 | 0.00 | 0.00 | 0.00 | 46 | 1013.4 |
| 20260502235041 | 58 | 12 | 5.0 | 14.0 | 0.00 | 0.00 | 0.00 | 44 | 1013.3 |
| 20260502234545 | 59 | 45 | 5.0 | 11.0 | 0.00 | 0.00 | 0.00 | 44 | 1013.3 |
| 20260502234040 | 59 | 355 | 4.0 | 15.0 | 0.00 | 0.00 | 0.00 | 44 | 1013.2 |
| 20260502233540 | 59 | 352 | 6.0 | 15.0 | 0.00 | 0.00 | 0.00 | 46 | 1013.2 |
| 20260502233044 | 59 | 20 | 5.0 | 13.0 | 0.00 | 0.00 | 0.00 | 44 | 1013.2 |
| 20260502232538 | 60 | 15 | 7.0 | 20.0 | 0.00 | 0.00 | 0.00 | 43 | 1013.2 |
| 20260502232038 | 60 | 5 | 6.0 | 20.0 | 0.00 | 0.00 | 0.00 | 47 | 1013.2 |
| 20260502231552 | 60 | 5 | 7.0 | 20.0 | 0.00 | 0.00 | 0.00 | 42 | 1013.1 |
| 20260502231042 | 60 | 352 | 6.0 | 14.0 | 0.00 | 0.00 | 0.00 | 42 | 1013.1 |
| 20260502230539 | 60 | 328 | 9.0 | 14.0 | 0.00 | 0.00 | 0.00 | 42 | 1013.1 |
| 20260502230051 | 60 | 27 | 7.0 | 14.0 | 0.00 | 0.00 | 0.00 | 43 | 1013.0 |
| 20260502225541 | 60 | 304 | 7.0 | 14.0 | 0.00 | 0.00 | 0.00 | 41 | 1013.0 |
| 20260502225038 | 60 | 15 | 8.0 | 14.0 | 0.00 | 0.00 | 0.00 | 42 | 1013.1 |
| 20260502224549 | 60 | 352 | 7.0 | 14.0 | 0.00 | 0.00 | 0.00 | 41 | 1013.1 |
| 20260502224038 | 60 | 317 | 6.0 | 14.0 | 0.00 | 0.00 | 0.00 | 42 | 1013.2 |
| 20260502223538 | 60 | 333 | 7.0 | 15.0 | 0.00 | 0.00 | 0.00 | 42 | 1013.1 |
| 20260502223046 | 60 | 311 | 8.0 | 24.0 | 0.00 | 0.00 | 0.00 | 41 | 1013.2 |
| 20260502222537 | 60 | 10 | 11.0 | 24.0 | 0.00 | 0.00 | 0.00 | 41 | 1013.1 |
| 20260502222037 | 60 | 327 | 7.0 | 14.0 | 0.00 | 0.00 | 0.00 | 43 | 1013.1 |
| 20260502221546 | 60 | 340 | 6.0 | 14.0 | 0.00 | 0.00 | 0.00 | 41 | 1013.1 |
| 20260502221038 | 60 | 346 | 4.0 | 11.0 | 0.00 | 0.00 | 0.00 | 44 | 1013.0 |
| 20260502220542 | 59 | 352 | 6.0 | 12.0 | 0.00 | 0.00 | 0.00 | 44 | 1012.9 |
| 20260502220046 | 60 | 331 | 6.0 | 13.0 | 0.00 | 0.00 | 0.00 | 43 | 1012.8 |
| 20260502215538 | 60 | 9 | 3.0 | 15.0 | 0.00 | 0.00 | 0.00 | 43 | 1012.8 |
| 20260502215038 | 59 | 24 | 10.0 | 17.0 | 0.00 | 0.00 | 0.00 | 44 | 1012.7 |
| 20260502214543 | 59 | 37 | 9.0 | 17.0 | 0.00 | 0.00 | 0.00 | 42 | 1012.6 |
| 20260502214038 | 60 | 19 | 7.0 | 17.0 | 0.00 | 0.00 | 0.00 | 45 | 1012.7 |
| 20260502213538 | 59 | 336 | 5.0 | 20.0 | 0.00 | 0.00 | 0.00 | 45 | 1012.5 |
| 20260502213100 | 59 | 24 | 9.0 | 20.0 | 0.00 | 0.00 | 0.00 | 45 | 1012.5 |
| 20260502212538 | 60 | 44 | 7.0 | 24.0 | 0.00 | 0.00 | 0.00 | 44 | 1012.4 |
| 20260502212038 | 60 | 15 | 11.0 | 24.0 | 0.00 | 0.00 | 0.00 | 42 | 1012.4 |
| 20260502211549 | 60 | 26 | 13.0 | 22.0 | 0.00 | 0.00 | 0.00 | 42 | 1012.4 |
| 20260502211038 | 60 | 48 | 11.0 | 22.0 | 0.00 | 0.00 | 0.00 | 44 | 1012.3 |
| 20260502210540 | 60 | 355 | 9.0 | 19.0 | 0.00 | 0.00 | 0.00 | 44 | 1012.4 |
| 20260502210051 | 60 | 360 | 10.0 | 19.0 | 0.00 | 0.00 | 0.00 | 42 | 1012.4 |
| 20260502205538 | 60 | 360 | 10.0 | 18.0 | 0.00 | 0.00 | 0.00 | 41 | 1012.3 |
| 20260502205043 | 61 | 313 | 9.0 | 18.0 | 0.00 | 0.00 | 0.00 | 40 | 1012.3 |
| 20260502204546 | 61 | 352 | 8.0 | 17.0 | 0.00 | 0.00 | 0.00 | 42 | 1012.2 |
| 20260502204042 | 61 | 360 | 8.0 | 17.0 | 0.00 | 0.00 | 0.00 | 41 | 1012.4 |
| 20260502203539 | 60 | 360 | 9.0 | 17.0 | 0.00 | 0.00 | 0.00 | 41 | 1012.4 |
| 20260502203050 | 60 | 41 | 11.0 | 22.0 | 0.00 | 0.00 | 0.00 | 37 | 1012.4 |
| 20260502202538 | 60 | 290 | 10.0 | 28.0 | 0.00 | 0.00 | 0.00 | 39 | 1012.2 |
| 20260502202038 | 60 | 13 | 14.0 | 28.0 | 0.00 | 0.00 | 0.00 | 37 | 1012.3 |
| 20260502201548 | 60 | 28 | 7.0 | 20.0 | 0.00 | 0.00 | 0.00 | 42 | 1012.2 |
| 20260502201038 | 60 | 9 | 11.0 | 21.0 | 0.00 | 0.00 | 0.00 | 38 | 1012.2 |
| 20260502200538 | 60 | 348 | 11.0 | 21.0 | 0.00 | 0.00 | 0.00 | 39 | 1012.3 |
| 20260502200107 | 61 | 10 | 12.0 | 21.0 | 0.00 | 0.00 | 0.00 | 37 | 1012.3 |
| 20260502195537 | 61 | 360 | 11.0 | 22.0 | 0.00 | 0.00 | 0.00 | 38 | 1012.2 |
| 20260502195038 | 61 | 304 | 9.0 | 25.0 | 0.00 | 0.00 | 0.00 | 41 | 1012.2 |
| 20260502194605 | 61 | 348 | 10.0 | 25.0 | 0.00 | 0.00 | 0.00 | 40 | 1012.3 |
| 20260502194039 | 61 | 63 | 11.0 | 25.0 | 0.00 | 0.00 | 0.00 | 40 | 1012.2 |
| 20260502193540 | 60 | 352 | 10.0 | 20.0 | 0.00 | 0.00 | 0.00 | 40 | 1012.2 |
| 20260502193047 | 60 | 37 | 12.0 | 22.0 | 0.00 | 0.00 | 0.00 | 38 | 1012.3 |
| 20260502192538 | 60 | 35 | 11.0 | 24.0 | 0.00 | 0.00 | 0.00 | 37 | 1012.3 |
| 20260502192038 | 61 | 5 | 12.0 | 24.0 | 0.00 | 0.00 | 0.00 | 40 | 1012.3 |
| 20260502191551 | 61 | 355 | 8.0 | 19.0 | 0.00 | 0.00 | 0.00 | 38 | 1012.1 |
| 20260502191039 | 60 | 360 | 11.0 | 26.0 | 0.00 | 0.00 | 0.00 | 35 | 1012.2 |
| 20260502190539 | 60 | 343 | 12.0 | 26.0 | 0.00 | 0.00 | 0.00 | 36 | 1012.3 |
| 20260502190048 | 61 | 282 | 9.0 | 26.0 | 0.00 | 0.00 | 0.00 | 39 | 1012.1 |
| 20260502185537 | 60 | 304 | 9.0 | 20.0 | 0.00 | 0.00 | 0.00 | 38 | 1012.0 |
| 20260502185037 | 60 | 5 | 9.0 | 20.0 | 0.00 | 0.00 | 0.00 | 37 | 1012.2 |
| 20260502184546 | 60 | 40 | 10.0 | 20.0 | 0.00 | 0.00 | 0.00 | 41 | 1012.2 |
| 20260502184044 | 60 | 5 | 6.0 | 17.0 | 0.00 | 0.00 | 0.00 | 40 | 1012.1 |
| 20260502183539 | 60 | 25 | 6.0 | 17.0 | 0.00 | 0.00 | 0.00 | 41 | 1012.3 |
| 20260502183050 | 60 | 280 | 9.0 | 17.0 | 0.00 | 0.00 | 0.00 | 37 | 1012.2 |
| 20260502182539 | 60 | 308 | 10.0 | 19.0 | 0.00 | 0.00 | 0.00 | 38 | 1012.3 |
| 20260502182038 | 60 | 11 | 4.0 | 19.0 | 0.00 | 0.00 | 0.00 | 44 | 1012.2 |
| 20260502181552 | 60 | 329 | 9.0 | 19.0 | 0.00 | 0.00 | 0.00 | 41 | 1012.3 |
| 20260502181038 | 60 | 302 | 6.0 | 21.0 | 0.00 | 0.00 | 0.00 | 43 | 1012.3 |
| 20260502180538 | 60 | 271 | 7.0 | 21.0 | 0.00 | 0.00 | 0.00 | 48 | 1012.2 |
| 20260502164038 | 58 | 311 | 6.0 | 18.0 | 0.00 | 0.00 | 0.00 | 58 | 1012.8 |
| 20260502163541 | 58 | 20 | 12.0 | 18.0 | 0.00 | 0.00 | 0.00 | 56 | 1012.9 |
| 20260502163051 | 58 | 10 | 7.0 | 17.0 | 0.00 | 0.00 | 0.00 | 58 | 1012.9 |
| 20260502162538 | 58 | 344 | 8.0 | 21.0 | 0.00 | 0.00 | 0.00 | 58 | 1012.8 |
| 20260502162037 | 58 | 32 | 11.0 | 21.0 | 0.00 | 0.00 | 0.00 | 58 | 1012.9 |
| 20260502161549 | 58 | 342 | 10.0 | 21.0 | 0.00 | 0.00 | 0.00 | 60 | 1013.0 |
| 20260502161038 | 58 | 16 | 6.0 | 16.0 | 0.00 | 0.00 | 0.00 | 63 | 1013.0 |
| 20260502160538 | 57 | 236 | 9.0 | 16.0 | 0.00 | 0.00 | 0.00 | 61 | 1013.0 |
| 20260502152038 | 57 | 9 | 1.0 | 10.0 | 0.00 | 0.00 | 0.00 | 67 | 1012.6 |
| 20260502151559 | 56 | 106 | 2.0 | 10.0 | 0.00 | 0.00 | 0.00 | 66 | 1012.8 |
| 20260502151038 | 56 | 334 | 4.0 | 10.0 | 0.00 | 0.00 | 0.00 | 69 | 1012.8 |
| 20260502150537 | 56 | 99 | 3.0 | 10.0 | 0.00 | 0.00 | 0.00 | 67 | 1012.6 |
| 20260502150118 | 56 | 45 | 4.0 | 9.0 | 0.00 | 0.00 | 0.00 | 68 | 1012.7 |
| 20260502130540 | 51 | 355 | 4.0 | 9.0 | 0.00 | 0.00 | 0.00 | 74 | 1012.3 |
| 20260502123539 | 51 | 351 | 4.0 | 9.0 | 0.00 | 0.00 | 0.00 | 75 | 1012.5 |
| 20260502123049 | 50 | 13 | 3.0 | 9.0 | 0.00 | 0.00 | 0.00 | 75 | 1012.5 |
| 20260502122540 | 50 | 5 | 4.0 | 9.0 | 0.00 | 0.00 | 0.00 | 75 | 1012.3 |
| 20260502122041 | 50 | 311 | 3.0 | 9.0 | 0.00 | 0.00 | 0.00 | 75 | 1012.3 |
| 20260502121557 | 50 | 10 | 3.0 | 5.0 | 0.00 | 0.00 | 0.00 | 74 | 1011.9 |
| 20260502121044 | 51 | 30 | 2.0 | 6.0 | 0.00 | 0.00 | 0.00 | 75 | 1012.1 |
| 20260502120541 | 50 | 48 | 3.0 | 7.0 | 0.00 | 0.00 | 0.00 | 75 | 1012.2 |
| 20260502120110 | 50 | 309 | 2.0 | 7.0 | 0.00 | 0.00 | 0.00 | 74 | 1012.4 |
| 20260502115541 | 51 | 296 | 3.0 | 7.0 | 0.00 | 0.00 | 0.00 | 74 | 1012.5 |
| 20260502115039 | 50 | 304 | 2.0 | 5.0 | 0.00 | 0.00 | 0.00 | 73 | 1012.5 |
| 20260502114548 | 51 | 285 | 2.0 | 8.0 | 0.00 | 0.00 | 0.00 | 73 | 1012.4 |
| 20260502114039 | 51 | 15 | 2.0 | 8.0 | 0.00 | 0.00 | 0.00 | 73 | 1012.4 |
| 20260502113540 | 51 | 340 | 2.0 | 5.0 | 0.00 | 0.00 | 0.00 | 73 | 1012.3 |
| 20260502113109 | 51 | 292 | 2.0 | 4.0 | 0.00 | 0.00 | 0.00 | 74 | 1012.4 |
| 20260502112538 | 51 | 296 | 2.0 | 5.0 | 0.00 | 0.00 | 0.00 | 73 | 1012.2 |
| 20260502112041 | 51 | 261 | 1.0 | 7.0 | 0.00 | 0.00 | 0.00 | 72 | 1012.3 |
| 20260502111548 | 51 | 239 | 4.0 | 7.0 | 0.00 | 0.00 | 0.00 | 74 | 1012.1 |
| 20260502111038 | 51 | 5 | 3.0 | 11.0 | 0.00 | 0.00 | 0.00 | 73 | 1011.8 |
| 20260502110544 | 51 | 330 | 3.0 | 11.0 | 0.00 | 0.00 | 0.00 | 72 | 1011.7 |
| 20260502110057 | 51 | 323 | 3.0 | 11.0 | 0.00 | 0.00 | 0.00 | 73 | 1011.7 |
| 20260502105538 | 51 | 346 | 3.0 | 9.0 | 0.00 | 0.00 | 0.00 | 73 | 1011.8 |
| 20260502105039 | 51 | 349 | 4.0 | 9.0 | 0.00 | 0.00 | 0.00 | 72 | 1011.8 |
| 20260502104549 | 51 | 350 | 3.0 | 6.0 | 0.00 | 0.00 | 0.00 | 72 | 1011.9 |
| 20260502104039 | 51 | 337 | 4.0 | 9.0 | 0.00 | 0.00 | 0.00 | 71 | 1011.8 |
| 20260502103539 | 51 | 16 | 3.0 | 9.0 | 0.00 | 0.00 | 0.00 | 71 | 1011.9 |
| 20260502103108 | 51 | 360 | 4.0 | 9.0 | 0.00 | 0.00 | 0.00 | 71 | 1011.6 |
| 20260502102539 | 51 | 327 | 5.0 | 9.0 | 0.00 | 0.00 | 0.00 | 72 | 1011.5 |
| 20260502102041 | 51 | 31 | 3.0 | 5.0 | 0.00 | 0.00 | 0.00 | 71 | 1011.5 |
| 20260502101549 | 51 | 17 | 2.0 | 5.0 | 0.00 | 0.00 | 0.00 | 73 | 1011.6 |
| 20260502101038 | 51 | 340 | 3.0 | 7.0 | 0.00 | 0.00 | 0.00 | 71 | 1011.5 |
| 20260502100543 | 52 | 355 | 3.0 | 9.0 | 0.00 | 0.00 | 0.00 | 71 | 1011.5 |
| 20260502091040 | 52 | 15 | 3.0 | 8.0 | 0.00 | 0.00 | 0.00 | 69 | 1011.8 |
| 20260502090539 | 52 | 9 | 3.0 | 8.0 | 0.00 | 0.00 | 0.00 | 68 | 1011.6 |
| 20260502071038 | 54 | 300 | 4.0 | 10.0 | 0.00 | 0.00 | 0.00 | 67 | 1012.3 |
| 20260502070539 | 54 | 254 | 2.0 | 7.0 | 0.00 | 0.00 | 0.00 | 68 | 1012.4 |
| 20260502070050 | 54 | 310 | 3.0 | 7.0 | 0.00 | 0.00 | 0.00 | 68 | 1012.3 |
| 20260502065540 | 54 | 275 | 2.0 | 7.0 | 0.00 | 0.00 | 0.00 | 68 | 1012.2 |
| 20260502065038 | 54 | 337 | 2.0 | 8.0 | 0.00 | 0.00 | 0.00 | 70 | 1012.2 |
| 20260502064548 | 54 | 5 | 3.0 | 8.0 | 0.00 | 0.00 | 0.00 | 70 | 1012.2 |
| 20260502064040 | 54 | 327 | 3.0 | 6.0 | 0.00 | 0.00 | 0.00 | 70 | 1012.4 |
| 20260502063539 | 54 | 360 | 2.0 | 8.0 | 0.00 | 0.00 | 0.00 | 70 | 1012.5 |
| 20260502063054 | 54 | 360 | 2.0 | 8.0 | 0.00 | 0.00 | 0.00 | 71 | 1012.6 |
| 20260502062539 | 55 | 288 | 1.0 | 7.0 | 0.00 | 0.00 | 0.00 | 72 | 1012.6 |
| 20260502062041 | 55 | 300 | 2.0 | 7.0 | 0.00 | 0.00 | 0.00 | 72 | 1012.6 |
| 20260502061542 | 55 | 297 | 3.0 | 6.0 | 0.00 | 0.00 | 0.00 | 73 | 1012.6 |
| 20260502061040 | 55 | 292 | 2.0 | 6.0 | 0.00 | 0.00 | 0.00 | 73 | 1012.6 |
| 20260502060539 | 55 | 289 | 2.0 | 7.0 | 0.00 | 0.00 | 0.00 | 73 | 1012.7 |
| 20260502060042 | 55 | 5 | 3.0 | 7.0 | 0.00 | 0.00 | 0.00 | 73 | 1012.6 |
| 20260502055539 | 55 | 355 | 2.0 | 6.0 | 0.00 | 0.00 | 0.00 | 73 | 1012.5 |
| 20260502055039 | 55 | 293 | 2.0 | 6.0 | 0.00 | 0.00 | 0.00 | 75 | 1012.4 |
| 20260502054554 | 55 | 355 | 3.0 | 6.0 | 0.00 | 0.00 | 0.00 | 75 | 1012.4 |
| 20260502054040 | 55 | 297 | 1.0 | 4.0 | 0.00 | 0.00 | 0.00 | 76 | 1012.6 |
| 20260502053541 | 55 | 347 | 2.0 | 6.0 | 0.00 | 0.00 | 0.00 | 76 | 1012.8 |
| 20260502053101 | 55 | 254 | 2.0 | 6.0 | 0.00 | 0.00 | 0.00 | 76 | 1012.7 |
| 20260502052540 | 55 | 292 | 1.0 | 5.0 | 0.00 | 0.00 | 0.00 | 76 | 1012.7 |
| 20260502052042 | 55 | 0 | 1.0 | 5.0 | 0.00 | 0.00 | 0.00 | 76 | 1012.6 |
| 20260502051549 | 55 | 345 | 2.0 | 5.0 | 0.00 | 0.00 | 0.00 | 76 | 1012.6 |
| 20260502051040 | 55 | 306 | 2.0 | 4.0 | 0.00 | 0.00 | 0.00 | 76 | 1012.7 |
| 20260502050540 | 55 | 322 | 2.0 | 5.0 | 0.00 | 0.00 | 0.00 | 76 | 1012.8 |
| 20260502050049 | 55 | 347 | 2.0 | 5.0 | 0.00 | 0.00 | 0.00 | 76 | 1012.7 |
| 20260502045543 | 55 | 288 | 2.0 | 6.0 | 0.00 | 0.00 | 0.00 | 76 | 1012.8 |
| 20260502045039 | 55 | 342 | 1.0 | 6.0 | 0.00 | 0.00 | 0.00 | 77 | 1012.8 |